Content
SEND FEEDBACK

Daily
Averages
Monthly
Summary
United States of America

MAURICEVILLE, TEXAS


Home > North America > United States > Texas
Elevation: 20 feet     Latitude: 30 14N     Longitude: 093 44W

WEATHER
 
SELECT A DAY
Number of Records: 103,265;   Date Range: 8/25/05 - 4/22/14
 
SHARE

PRINT THIS DATA

[ ← Previous Day ]
WEATHER ALMANAC - JULY 27, 2013
[ Next Day → ]
[ °C ]   °F
Weather ElementAverageHighLow
Temperature83.1 °F89.4 °F (4:35 pm)78.3 °F (10:15 pm)
Dewpoint74.9 °F76.8 °F (8:35 am)72 °F (1:55 pm)
Humidity76.8 %89 % (6:35 am)58 % (1:55 pm)
Barometer29.93 in29.97 in (12:35 am)29.87 in (5:15 pm)
Wind Speed7 mph15 mph (8:55 am)
Wind Gust23 mph (8:55 am)
Weather ElementAverage
Visibility9.7 mi
Wind DirectionSSW (200.7 °)

Weather ElementTotal
Precipitation---
Cooling Degree Days18.9 (Base 65)
Growing Degree Days33.9 (Base 50)
Averaged from 71 records on July 27, 2013
WEATHER CONDITIONS BREAKOUT
WIND DIRECTION BREAKOUT
WEATHER BY HOUR - JULY 27, 2013
[ °C ]   °F
Local TimeTemperatureDewpointHumidityBarometerVisibilityWind DirectionWind SpeedGust SpeedPrecipitationEventsConditions
12:35 AM82.2 °F75.4 °F80 %29.97 in10.0 miSSW (200°)10.4 mphScattered Clouds
12:55 AM82.0 °F75.4 °F80 %29.96 in10.0 miSSW (200°)9.2 mphScattered Clouds
1:15 AM82.0 °F75.6 °F81 %29.95 in10.0 miSSW (210°)8.1 mphScattered Clouds
1:35 AM81.9 °F75.4 °F81 %29.95 in10.0 miSSW (210°)10.4 mphScattered Clouds
1:55 AM82.0 °F75.4 °F80 %29.95 in10.0 miSSW (210°)10.4 mphClear
2:15 AM82.0 °F75.4 °F80 %29.96 in10.0 miSW (220°)8.1 mph16.1 mphClear
2:35 AM82.4 °F75.6 °F80 %29.95 in10.0 miSW (220°)12.7 mphClear
2:55 AM82.0 °F75.7 °F81 %29.95 in10.0 miSW (220°)9.2 mphClear
3:15 AM82.0 °F75.9 °F82 %29.95 in10.0 miSW (220°)8.1 mphClear
3:35 AM81.9 °F75.9 °F82 %29.94 in10.0 miSW (220°)9.2 mphClear
3:55 AM81.7 °F75.7 °F82 %29.95 in10.0 miSW (220°)8.1 mphScattered Clouds
4:15 AM81.7 °F76.1 °F83 %29.95 in10.0 miSW (220°)5.8 mphRainRain
4:35 AM81.1 °F76.5 °F86 %29.93 in10.0 miSSW (210°)6.9 mphRainLight Rain
4:55 AM81.0 °F76.5 °F86 %29.94 in10.0 miSW (220°)6.9 mphMostly Cloudy
5:15 AM81.3 °F76.3 °F85 %29.94 in10.0 miSW (230°)6.9 mphMostly Cloudy
5:35 AM81.5 °F76.1 °F84 %29.95 in10.0 miSW (230°)6.9 mphScattered Clouds
5:55 AM81.1 °F76.1 °F85 %29.95 in10.0 miWSW (240°)6.9 mphScattered Clouds
6:15 AM80.6 °F76.3 °F87 %29.95 in10.0 miSW (230°)5.8 mphRainRain
6:35 AM79.9 °F76.3 °F89 %29.94 in10.0 miSW (220°)4.6 mphLight Drizzle
6:55 AM79.7 °F76.1 °F89 %29.95 in10.0 miWSW (240°)6.9 mphRainLight Rain
7:15 AM79.9 °F75.4 °F86 %29.95 in10.0 miWSW (240°)8.1 mphOvercast
7:35 AM80.2 °F75.9 °F87 %29.95 in10.0 miSW (230°)10.4 mphScattered Clouds
7:55 AM80.6 °F75.6 °F85 %29.94 in10.0 miWSW (240°)6.9 mphLight Drizzle
8:15 AM80.2 °F75.6 °F86 %29.94 in10.0 miWSW (240°)6.9 mphScattered Clouds
8:35 AM82.0 °F76.8 °F84 %29.95 in10.0 miWSW (240°)9.2 mph17.3 mphScattered Clouds
8:55 AM82.4 °F74.8 °F78 %29.95 in10.0 miWSW (250°)15.0 mph23.0 mphScattered Clouds
9:15 AM79.9 °F73.9 °F82 %29.95 in7.0 miSW (230°)8.1 mph17.3 mphRainLight Rain
9:35 AM79.3 °F73.4 °F82 %29.95 in10.0 miSW (230°)8.1 mphOvercast
9:55 AM79.2 °F73.4 °F82 %29.95 in10.0 miWSW (250°)6.9 mphOvercast
10:15 AM81.0 °F74.3 °F80 %29.95 in10.0 miSW (230°)9.2 mphOvercast
10:35 AM82.4 °F74.5 °F77 %29.95 in10.0 miWSW (240°)8.1 mphMostly Cloudy
10:55 AM83.7 °F73.6 °F72 %29.95 in10.0 miWSW (250°)11.5 mph19.6 mphScattered Clouds
11:15 AM84.9 °F74.1 °F70 %29.95 in10.0 miWSW (240°)10.4 mphClear
11:35 AM85.8 °F73.2 °F66 %29.95 in10.0 miSW (230°)11.5 mph19.6 mphClear
11:55 AM87.1 °F73.4 °F64 %29.94 in10.0 miWSW (240°)9.2 mph19.6 mphScattered Clouds
12:15 PM87.8 °F73.8 °F63 %29.94 in10.0 miWSW (240°)12.7 mph23.0 mphClear
12:35 PM88.5 °F73.6 °F61 %29.94 in10.0 miSW (230°)12.7 mph20.7 mphThunderstormClear
12:55 PM89.2 °F73.4 °F59 %29.94 in10.0 miWSW (250°)9.2 mph19.6 mphMostly Cloudy
1:15 PM88.5 °F72.5 °F59 %29.94 in10.0 miWest (270°)8.1 mphMostly Cloudy
1:35 PM88.2 °F73.2 °F61 %29.93 in10.0 miWSW (250°)6.9 mphMostly Cloudy
1:55 PM88.7 °F72.0 °F58 %29.93 in10.0 miWSW (250°)8.1 mphMostly Cloudy
2:15 PM88.7 °F72.7 °F59 %29.93 in10.0 miWNW (290°)9.2 mphMostly Cloudy
2:35 PM88.2 °F73.6 °F62 %29.92 in10.0 miWNW (290°)4.6 mphMostly Cloudy
2:55 PM88.9 °F73.8 °F61 %29.91 in10.0 miSW (230°)4.6 mphMostly Cloudy
3:15 PM88.3 °F75.0 °F65 %29.91 in10.0 miNorth (350°)4.6 mphMostly Cloudy
3:35 PM87.8 °F75.2 °F66 %29.90 in10.0 miNNE (20°)6.9 mphMostly Cloudy
3:55 PM86.7 °F76.1 °F71 %29.90 in10.0 miNNW (330°)6.9 mphMostly Cloudy
4:15 PM86.7 °F75.2 °F68 %29.89 in10.0 miNorth (10°)4.6 mphOvercast
4:35 PM89.4 °F74.8 °F62 %29.88 in10.0 miNNW (340°)6.9 mphScattered Clouds
4:55 PM89.1 °F76.6 °F67 %29.88 in10.0 miNNW (330°)9.2 mphScattered Clouds
5:15 PM88.2 °F75.6 °F66 %29.87 in10.0 miNNW (340°)8.1 mphThunderstormScattered Clouds
5:35 PM88.3 °F76.5 °F68 %29.87 in10.0 miNorth (360°)9.2 mphThunderstormScattered Clouds
5:55 PM87.1 °F75.6 °F68 %29.88 in7.0 miNorth (360°)4.6 mphThunderstormScattered Clouds
6:15 PM86.7 °F74.8 °F68 %29.89 in7.0 miNNE (20°)5.8 mphMostly Cloudy
6:35 PM86.9 °F75.2 °F68 %29.89 in7.0 miNorth (360°)4.6 mphThunderstormOvercast
6:55 PM86.2 °F75.2 °F70 %29.90 in7.0 miNorth (10°)6.9 mphScattered Clouds
7:15 PM84.2 °F75.4 °F75 %29.90 in7.0 miEast (80°)5.8 mphMostly Cloudy
7:35 PM82.2 °F73.9 °F76 %29.91 in10.0 miSE (140°)6.9 mphThunderstormOvercast
7:55 PM80.1 °F74.5 °F83 %29.92 in10.0 miSouth (180°)8.1 mphOvercast
8:15 PM79.7 °F74.1 °F83 %29.91 in10.0 miSW (220°)8.1 mphOvercast
8:35 PM78.8 °F73.6 °F84 %29.92 in10.0 miSSW (200°)4.6 mphMostly Cloudy
8:55 PM79.2 °F73.2 °F82 %29.92 in10.0 miCalmOvercast
9:15 PM78.8 °F73.8 °F84 %29.92 in10.0 miCalmOvercast
9:35 PM78.6 °F74.1 °F86 %29.93 in10.0 miCalmOvercast
9:55 PM78.6 °F74.5 °F87 %29.93 in10.0 miCalmMostly Cloudy
10:15 PM78.3 °F74.7 °F89 %29.94 in10.0 miCalmMostly Cloudy
10:35 PM78.6 °F74.8 °F88 %29.94 in10.0 miCalmOvercast
10:55 PM79.7 °F74.3 °F83 %29.94 in10.0 miCalmOvercast
11:15 PM79.0 °F74.7 °F87 %29.94 in10.0 miCalmOvercast
11:35 PM79.7 °F75.0 °F86 %29.95 in10.0 miSouth (180°)3.5 mphOvercast
11:55 PM79.2 °F75.4 °F88 %29.94 in10.0 miSSE (150°)4.6 mphOvercast
Hourly data recorded from KORG, located 12.09 miles away from Mauriceville, Texas







STORIES FROM OUR PARTNERS